Terminal Aerodrome Forecast
Issued by NWS Boston, MA

Home | Current Version | Previous Version | Text Only | Print | Product List | Glossary On
Versions: 1 2 3 4 5 6 7 8 9 10 11 12 13 14 15 16 17 18 19 20 21 22 23 24 25 26 27 28 29 30 31 32 33 34 35 36 37 38 39 40 41 42 43 44
000
FTUS41 KBOX 200311 AAA
TAFBOS
TAF AMD
KBOS 200311Z 2003/2106 16005KT P6SM FEW250
     FM200400 19004KT P6SM FEW250
     FM200800 00000KT P6SM FEW250
     FM201500 09007KT P6SM FEW250
     FM210200 16005KT P6SM FEW250=

USA.gov is the U.S. government's official web portal to all federal, state and local government web resources and services.